TimeMST,TemperatureF,Dew PointF,Humidity,Sea Level PressureIn,VisibilityMPH,Wind Direction,Wind SpeedMPH,Gust SpeedMPH,PrecipitationIn,Events,Conditions,WindDirDegrees,DateUTC
12:53 AM,30.9,10.0,42,29.98,10.0,Calm,Calm,-,N/A,,Clear,0,2012-11-30 07:53:00
1:53 AM,27.0,7.0,43,30.00,10.0,East,5.8,-,N/A,,Clear,80,2012-11-30 08:53:00
2:53 AM,26.1,8.1,47,30.00,10.0,West,3.5,-,N/A,,Clear,260,2012-11-30 09:53:00
3:53 AM,26.1,10.0,51,30.01,10.0,Calm,Calm,-,N/A,,Clear,0,2012-11-30 10:53:00
4:53 AM,28.9,10.0,45,30.03,10.0,WSW,3.5,-,N/A,,Clear,250,2012-11-30 11:53:00
5:53 AM,28.0,10.0,47,30.08,10.0,NNW,4.6,-,N/A,,Clear,330,2012-11-30 12:53:00
6:53 AM,24.1,8.1,51,30.10,10.0,West,4.6,-,N/A,,Clear,260,2012-11-30 13:53:00
7:53 AM,30.9,14.0,50,30.08,10.0,Calm,Calm,-,N/A,,Clear,0,2012-11-30 14:53:00
8:53 AM,37.0,16.0,42,30.07,10.0,Calm,Calm,-,N/A,,Clear,0,2012-11-30 15:53:00
9:53 AM,45.0,15.1,30,30.05,10.0,Calm,Calm,-,N/A,,Clear,0,2012-11-30 16:53:00
10:53 AM,53.1,21.0,29,29.99,10.0,SW,4.6,-,N/A,,Clear,220,2012-11-30 17:53:00
11:53 AM,61.0,19.9,21,29.91,10.0,WSW,6.9,-,N/A,,Clear,240,2012-11-30 18:53:00
12:53 PM,62.1,19.0,19,29.88,10.0,Calm,Calm,-,N/A,,Clear,0,2012-11-30 19:53:00
1:53 PM,63.0,19.0,18,29.86,10.0,Calm,Calm,-,N/A,,Clear,0,2012-11-30 20:53:00
2:53 PM,63.0,19.0,18,29.84,10.0,SE,3.5,-,N/A,,Clear,140,2012-11-30 21:53:00
3:53 PM,62.1,19.0,19,29.85,10.0,Calm,Calm,-,N/A,,Clear,0,2012-11-30 22:53:00
4:53 PM,50.0,15.8,26,29.88,10.0,Calm,Calm,-,N/A,,Clear,0,2012-11-30 23:53:00
5:53 PM,45.0,15.1,30,29.89,10.0,WNW,8.1,-,N/A,,Clear,300,2012-12-01 00:53:00
6:53 PM,43.0,15.1,32,29.89,10.0,Calm,Calm,-,N/A,,Clear,0,2012-12-01 01:53:00
7:53 PM,42.1,16.0,35,29.88,10.0,WNW,9.2,-,N/A,,Clear,290,2012-12-01 02:53:00
8:53 PM,43.0,16.0,34,29.84,10.0,NW,8.1,-,N/A,,Clear,310,2012-12-01 03:53:00
9:53 PM,39.0,16.0,39,29.84,10.0,WNW,6.9,-,N/A,,Clear,300,2012-12-01 04:53:00
10:53 PM,39.9,15.1,36,29.82,10.0,West,4.6,-,N/A,,Clear,280,2012-12-01 05:53:00
11:53 PM,41.0,15.8,36,29.86,10.0,WNW,6.9,-,N/A,,Clear,290,2012-12-01 06:53:00